CZ-6A DEB, 61349

Orbit data source: Space-Track

CZ-6A DEB, 61349 is space debris in LEO originally from a launch on Tue, 06 Aug 2024 UTC launched from the Taiyaun Space Center, China (TSC). Debris objects in space refer to the collection of defunct objects orbiting the Earth. Examples of debris include non-operational satellites, rocket bodies, and fragments generated from explosions, collisions, or faulty payload assembly.

Loading next visibility...
Identifier
61349, 2024-140VN
Orbit
LEO
Country
Flag of CNCN / PRC
Related business
Manufacturer
SAST
Mission
Spacecraft
Bus & Motor
Unknown
Mass
Unknown
Launch date (UTC)
2024-08-06 (1 year ago)
Launch vehicle
Unknown
Launch site
Taiyaun Space Center, China (TSC)
Object type
Payload
Rocket body
Debris
Shape & HBR
Unknown shape, 0.1 m
Radar Cross Section
Small (<0.1 m²)

Expand to show TLE details & history
Last TLE update: 14 hours ago

TLE from 14 hours ago
0 CZ-6A DEB
1 61349U 24140VN  25354.84163998  .00002331  00000-0  38987-3 0  9998
2 61349  89.0686 295.1279 0139307 138.6602 222.5258 14.63206268 69151
Epoch: 2025-12-20T20:11Z
TLE epoch observation values (Epoch: 2025-12-20T20:11:57.694Z)
Latitude
-0.0001°
Longitude
-97.52514°
Altitude
759.081 km
Speed
7.436 km/s
True Right ascension
19h 40m 30s
True Declination
0° 00' 00"
Sunlit
Object was in daylight at epoch
Visualization orbit readout
Latitude
Unknown
Longitude
Unknown
Altitude
Unknown
Speed
Unknown
Apparent Right ascension
Unknown
Apparent Declination
Unknown
Sunlit
N/A
Visualization observer readout
Local Sidereal Time
08:50:41
Azimuth
Unknown
Elevation
Unknown
Doppler factor
Unknown
Orbital elements
Apogee altitude
778.049 km
Perigee altitude
581.407 km
Semi-major axis
7,057.865 km
Eccentricity
0.01393
Inclination
89.0686°
RAAN
295.1279°
Arg. of periapsis
138.6602°
True anomaly
221.46054°
Mean anomaly
222.5258°
Eccentric anomaly
221.9918°
Mean motion
3.66044 °/min
Orbital period
98.35 mins
BSTAR
0.00038987
Loading maneuver chart data...
Computing Atmospheric mass density...

Documentation

Showing up to 5 results
|